Location: La Trinit�
(48.1620°N, 3.4512°W)
Time: 09:32:09
(UTC+00:00)

NOSS 3-3 (A) - Pass Details

Date: 08 May 2021
Orbit: 810 x 1402 km, 63.4° (Epoch: 06 June)

Event Time Altitude Azimuth Distance (km) Brightness Sun altitude
Rises 21:43:16 0° 213° (SSW) 3,382 6.6 -16.7°
Reaches altitude 10° 21:45:36 10° 212° (SSW) 2,494 5.9 -17.0°
Maximum altitude 21:51:20 77° 127° (SE) 961 3.8 -17.5°
Drops below altitude 10° 21:57:56 10° 43° (NE) 2,849 6.6 -18.1°
Sets 22:00:46 0° 42° (NE) 3,899 7.3 -18.4°
